GW2922 Weather Reports


time (UTC)temp
C
wind
direction
speed
KPH
gust
KPH
rain 1hr
cm
rain 24hr
cm
rain mn
cm
humidity
%
barometer
mb
20260901234832 16 94 0.0 1.6 0.00 0.00 0.00 75 1011.8
20260901234326 16 110 0.0 1.6 0.00 0.00 0.00 75 1011.8
20260901233821 17 110 0.0 1.6 0.00 0.00 0.00 75 1011.8
20260901233317 17 288 1.6 1.6 0.00 0.00 0.00 75 1011.8
20260901232812 17 82 1.6 1.6 0.00 0.00 0.00 74 1011.8
20260901232301 17 115 0.0 4.8 0.00 0.00 0.00 75 1011.8
20260901231757 17 58 1.6 3.2 0.00 0.00 0.00 74 1011.8
20260901231248 17 104 0.0 6.4 0.00 0.00 0.00 74 1011.8
20260901230744 17 309 3.2 6.4 0.00 0.00 0.00 74 1011.3
20260901230243 17 103 0.0 3.2 0.00 0.00 0.00 74 1011.3
20260901225738 18 60 0.0 3.2 0.00 0.00 0.00 73 1011.3
20260901225233 17 110 0.0 1.6 0.00 0.00 0.00 74 1011.3
20260901224729 17 82 0.0 3.2 0.00 0.00 0.00 73 1011.3
20260901224225 17 155 1.6 3.2 0.00 0.00 0.00 73 1011.8
20260901223721 17 95 0.0 1.6 0.00 0.00 0.00 74 1011.8
20260901223215 17 87 1.6 1.6 0.00 0.00 0.00 74 1011.3
20260901222711 17 118 0.0 3.2 0.00 0.00 0.00 75 1011.3
20260901222208 17 315 1.6 6.4 0.00 0.00 0.00 75 1011.8
20260901221703 16 109 0.0 3.2 0.00 0.00 0.00 76 1011.8
20260901221159 17 79 1.6 6.4 0.00 0.00 0.00 76 1011.8
20260901220658 17 86 3.2 3.2 0.00 0.00 0.00 73 1011.8
20260901220157 17 109 0.0 6.4 0.00 0.00 0.00 74 1011.8
20260901215655 18 302 4.8 6.4 0.00 0.00 0.00 72 1011.8
20260901215150 18 106 0.0 1.6 0.00 0.00 0.00 72 1011.8
20260901214648 18 96 1.6 1.6 0.00 0.00 0.00 72 1012.1
20260901214143 18 182 1.6 3.2 0.00 0.00 0.00 73 1011.8
20260901213642 19 111 1.6 4.8 0.00 0.00 0.00 73 1011.8
20260901213137 19 106 0.0 1.6 0.00 0.00 0.00 72 1011.8
20260901212637 19 131 0.0 1.6 0.00 0.00 0.00 72 1012.1
20260901212133 19 149 4.8 4.8 0.00 0.00 0.00 72 1012.1
20260901211628 19 118 1.6 4.8 0.00 0.00 0.00 72 1012.1
20260901211124 19 110 0.0 4.8 0.00 0.00 0.00 73 1012.1
20260901210620 20 105 1.6 1.6 0.00 0.00 0.00 70 1012.1
20260901210116 19 197 8.0 11.3 0.00 0.00 0.00 72 1012.1
20260901205611 19 84 1.6 4.8 0.00 0.00 0.00 73 1012.1
20260901205105 19 93 1.6 9.7 0.00 0.00 0.00 73 1012.1
20260901204602 20 187 4.8 6.4 0.00 0.00 0.00 71 1012.1
20260901204056 20 157 3.2 6.4 0.00 0.00 0.00 70 1012.1
20260901203550 20 121 3.2 3.2 0.00 0.00 0.00 70 1012.1
20260901203046 20 99 0.0 3.2 0.00 0.00 0.00 72 1012.1
20260901202545 19 130 3.2 6.4 0.00 0.00 0.00 73 1012.1
20260901202042 20 129 1.6 4.8 0.00 0.00 0.00 71 1012.1
20260901201537 18 135 3.2 4.8 0.00 0.00 0.00 74 1012.1
20260901201036 19 109 3.2 9.7 0.00 0.00 0.00 72 1012.1
20260901200536 20 113 3.2 6.4 0.00 0.00 0.00 71 1012.1
20260901200031 20 90 3.2 4.8 0.00 0.00 0.00 71 1012.1
20260901195528 20 122 1.6 3.2 0.00 0.00 0.00 70 1011.8
20260901195023 20 81 1.6 4.8 0.00 0.00 0.00 72 1012.1
20260901194518 20 167 4.8 6.4 0.00 0.00 0.00 72 1012.1
20260901194014 20 108 3.2 6.4 0.00 0.00 0.00 70 1012.1
20260901193513 20 91 1.6 3.2 0.00 0.00 0.00 71 1012.1
20260901193014 19 91 1.6 3.2 0.00 0.00 0.00 73 1012.1
20260901192509 19 108 1.6 12.9 0.00 0.00 0.00 72 1012.1
20260901192005 19 103 1.6 3.2 0.00 0.00 0.00 72 1012.1
20260901191500 19 81 3.2 4.8 0.00 0.00 0.00 72 1012.1
20260901190955 19 96 1.6 12.9 0.00 0.00 0.00 74 1011.8
20260901190451 19 108 3.2 3.2 0.00 0.00 0.00 72 1012.1
20260901185949 18 99 1.6 3.2 0.00 0.00 0.00 71 1012.1
20260901185444 18 116 1.6 1.6 0.00 0.00 0.00 73 1012.1
20260901184943 18 61 1.6 3.2 0.00 0.00 0.00 73 1012.1
20260901184439 18 74 1.6 4.8 0.00 0.00 0.00 72 1012.1
20260901183934 17 94 1.6 3.2 0.00 0.00 0.00 75 1012.1
20260901183433 17 99 0.0 6.4 0.00 0.00 0.00 76 1012.1
20260901182929 17 38 3.2 3.2 0.00 0.00 0.00 75 1012.1
20260901182424 17 100 0.0 3.2 0.00 0.00 0.00 74 1012.1
20260901181914 17 102 0.0 1.6 0.00 0.00 0.00 75 1012.1
20260901181408 16 108 0.0 1.6 0.00 0.00 0.00 77 1012.1
20260901180907 16 93 1.6 3.2 0.00 0.00 0.00 78 1012.1
20260901180401 16 18 1.6 3.2 0.00 0.00 0.00 78 1012.1
20260901175900 16 136 0.0 3.2 0.00 0.00 0.00 78 1012.1
20260901175354 16 105 0.0 1.6 0.00 0.00 0.00 78 1012.1
20260901174849 16 110 0.0 1.6 0.00 0.00 0.00 79 1012.1
20260901174345 16 116 1.6 3.2 0.00 0.00 0.00 79 1012.1
20260901173841 16 116 0.0 0.0 0.00 0.00 0.00 79 1012.1
20260901173335 16 87 0.0 3.2 0.00 0.00 0.00 79 1012.1
20260901172832 16 172 0.0 1.6 0.00 0.00 0.00 79 1011.8
20260901172331 16 121 0.0 3.2 0.00 0.00 0.00 80 1011.8
20260901171829 16 95 3.2 4.8 0.00 0.00 0.00 82 1011.8
20260901171329 16 110 4.8 9.7 0.00 0.00 0.00 83 1011.8
20260901170828 15 102 1.6 6.4 0.00 0.00 0.00 85 1011.8
20260901170322 15 163 11.3 12.9 0.00 0.00 0.00 84 1011.8
20260901165816 15 189 4.8 9.7 0.00 0.00 0.00 84 1011.8
20260901165310 15 177 1.6 6.4 0.00 0.00 0.00 85 1011.3
20260901164807 15 179 3.2 6.4 0.00 0.00 0.00 86 1011.8
20260901164302 15 218 8.0 11.3 0.00 0.00 0.00 86 1011.8
20260901163757 15 169 1.6 6.4 0.00 0.00 0.00 88 1011.8
20260901163256 14 207 4.8 9.7 0.00 0.00 0.00 89 1011.8
20260901162751 14 180 9.7 11.3 0.00 0.00 0.00 89 1011.8
20260901162251 13 159 3.2 6.4 0.00 0.00 0.00 90 1011.8
20260901161749 13 112 4.8 6.4 0.00 0.00 0.00 90 1011.8
20260901161244 13 150 4.8 6.4 0.00 0.00 0.00 90 1011.8
20260901160740 13 171 4.8 12.9 0.00 0.00 0.00 91 1011.8
20260901160236 13 222 6.4 16.1 0.00 0.00 0.00 91 1011.8
20260901155735 13 170 3.2 9.7 0.00 0.00 0.00 91 1011.8
20260901155231 13 149 3.2 12.9 0.00 0.00 0.00 91 1011.8
20260901154726 13 163 8.0 11.3 0.00 0.00 0.00 91 1011.3
20260901154221 13 155 6.4 9.7 0.00 0.00 0.00 91 1011.8
20260901153716 13 98 1.6 9.7 0.00 0.00 0.00 91 1011.8
20260901153215 13 157 1.6 6.4 0.00 0.00 0.00 91 1011.8
20260901152709 13 170 3.2 11.3 0.00 0.00 0.00 91 1011.8
20260901152203 13 116 1.6 12.9 0.00 0.00 0.00 91 1011.3
20260901151659 13 180 1.6 11.3 0.00 0.00 0.00 91 1011.8
20260901151158 13 140 4.8 12.9 0.00 0.00 0.00 91 1011.8
20260901150658 13 184 8.0 9.7 0.00 0.00 0.00 91 1011.3
20260901150156 13 177 8.0 11.3 0.00 0.00 0.00 91 1011.3
20260901145654 13 98 4.8 12.9 0.00 0.00 0.00 91 1011.3
20260901145153 12 166 6.4 11.3 0.00 0.00 0.00 91 1011.3
20260901144649 12 120 8.0 14.5 0.00 0.00 0.00 91 1011.3
20260901144143 12 150 6.4 14.5 0.00 0.00 0.00 91 1011.3
20260901143639 12 91 4.8 9.7 0.00 0.00 0.00 91 1011.3
20260901143135 12 164 8.0 9.7 0.00 0.00 0.00 91 1011.3
20260901142631 12 158 3.2 11.3 0.00 0.00 0.00 91 1011.3
20260901142130 12 121 4.8 6.4 0.00 0.00 0.00 90 1011.3
20260901141626 12 112 6.4 9.7 0.00 0.00 0.00 90 1011.3
20260901141126 12 128 4.8 6.4 0.00 0.00 0.00 90 1011.3
20260901140625 12 179 3.2 6.4 0.00 0.00 0.00 90 1011.3
20260901140124 12 122 1.6 3.2 0.00 0.00 0.00 90 1011.3
20260901135624 12 127 3.2 4.8 0.00 0.00 0.00 90 1011.3
20260901135119 12 119 1.6 3.2 0.00 0.00 0.00 90 1011.3
20260901134615 12 137 1.6 3.2 0.00 0.00 0.00 91 1011.3
20260901134110 11 162 3.2 4.8 0.00 0.00 0.00 91 1011.3
20260901133609 11 148 1.6 3.2 0.00 0.00 0.00 91 1011.3
20260901133107 11 172 3.2 4.8 0.00 0.00 0.00 91 1011.3
20260901132602 11 136 3.2 4.8 0.00 0.00 0.00 91 1011.0
20260901132056 11 129 1.6 1.6 0.00 0.00 0.00 91 1011.3
20260901131550 11 149 1.6 3.2 0.00 0.00 0.00 91 1011.0
20260901131046 11 123 1.6 3.2 0.00 0.00 0.00 91 1011.3
20260901130545 11 143 1.6 3.2 0.00 0.00 0.00 92 1011.0
20260901130044 11 130 0.0 1.6 0.00 0.00 0.00 92 1011.0
20260901125542 11 126 0.0 0.0 0.00 0.00 0.00 92 1011.0
20260901125038 11 121 0.0 0.0 0.00 0.00 0.00 92 1011.0
20260901124538 11 104 0.0 0.0 0.00 0.00 0.00 92 1011.0
20260901124033 11 104 0.0 0.0 0.00 0.00 0.00 92 1011.3
20260901123528 11 120 0.0 1.6 0.00 0.00 0.00 92 1011.0
20260901123027 11 123 0.0 1.6 0.00 0.00 0.00 93 1011.0
20260901122526 11 115 0.0 0.0 0.00 0.00 0.00 93 1011.0
20260901122020 11 115 0.0 0.0 0.00 0.00 0.00 93 1011.0
20260901121514 11 111 0.0 0.0 0.00 0.00 0.00 92 1011.0
20260901121009 11 104 0.0 0.0 0.00 0.00 0.00 93 1011.3
20260901120503 11 114 0.0 1.6 0.00 0.00 0.00 93 1011.0
20260901115959 11 117 1.6 1.6 0.00 0.00 0.00 93 1011.0
20260901115454 11 119 0.0 0.0 0.00 0.00 0.00 93 1011.0
20260901114951 10 112 0.0 0.0 0.00 0.00 0.00 93 1011.0
20260901114446 11 112 0.0 0.0 0.00 0.00 0.00 93 1011.0
20260901113945 11 108 0.0 0.0 0.00 0.00 0.00 93 1011.0
20260901113444 11 117 0.0 0.0 0.00 0.00 0.00 93 1011.0
20260901112940 11 117 0.0 0.0 0.00 0.00 0.00 93 1011.3
20260901112435 10 109 0.0 0.0 0.00 0.00 0.00 92 1011.0
20260901111930 10 109 0.0 0.0 0.00 0.00 0.00 92 1011.3
20260901111429 10 110 0.0 0.0 0.00 0.00 0.00 92 1011.3
20260901110927 10 110 0.0 0.0 0.00 0.00 0.00 92 1011.3
20260901110423 10 109 0.0 0.0 0.00 0.00 0.00 92 1011.3
20260901105919 11 109 0.0 0.0 0.00 0.00 0.00 92 1011.3
20260901105414 11 109 0.0 0.0 0.00 0.00 0.00 92 1011.3
20260901104910 10 110 0.0 0.0 0.00 0.00 0.00 92 1011.0
20260901104405 10 110 0.0 0.0 0.00 0.00 0.00 92 1011.3
20260901103901 10 109 0.0 0.0 0.00 0.00 0.00 92 1011.3
20260901103400 10 109 0.0 0.0 0.00 0.00 0.00 91 1011.3
20260901102855 10 109 0.0 0.0 0.00 0.00 0.00 91 1011.0
20260901102349 10 109 0.0 0.0 0.00 0.00 0.00 91 1011.3
20260901101844 10 109 0.0 0.0 0.00 0.00 0.00 91 1011.3
20260901101339 10 109 0.0 0.0 0.00 0.00 0.00 91 1011.3
20260901100839 10 109 0.0 0.0 0.00 0.00 0.00 91 1011.3
20260901100338 10 110 0.0 0.0 0.00 0.00 0.00 91 1011.3
20260901095833 11 109 0.0 0.0 0.00 0.00 0.00 91 1011.3
20260901095330 11 99 0.0 0.0 0.00 0.00 0.00 90 1011.3
20260901094824 11 98 0.0 0.0 0.00 0.00 0.00 90 1011.3
20260901094319 10 113 0.0 0.0 0.00 0.00 0.00 90 1011.3
20260901093815 11 113 0.0 0.0 0.00 0.00 0.00 90 1011.3
20260901093313 11 112 0.0 0.0 0.00 0.00 0.00 90 1011.3
20260901092809 11 114 0.0 0.0 0.00 0.00 0.00 90 1011.3
20260901092306 11 114 0.0 0.0 0.00 0.00 0.00 90 1011.3
20260901091801 11 114 0.0 0.0 0.00 0.00 0.00 89 1011.3
20260901091256 11 114 0.0 0.0 0.00 0.00 0.00 89 1011.3
20260901090755 11 114 0.0 0.0 0.00 0.00 0.00 89 1011.3
20260901090250 11 113 0.0 0.0 0.00 0.00 0.00 89 1011.3
20260901085746 11 114 0.0 0.0 0.00 0.00 0.00 88 1011.3
20260901085241 11 114 0.0 0.0 0.00 0.00 0.00 88 1011.3
20260901084738 11 114 0.0 0.0 0.00 0.00 0.00 88 1011.3
20260901084235 11 114 0.0 0.0 0.00 0.00 0.00 87 1011.3
20260901083734 12 114 0.0 0.0 0.00 0.00 0.00 87 1011.3
20260901083234 12 114 0.0 0.0 0.00 0.00 0.00 86 1011.3
20260901082732 12 114 0.0 0.0 0.00 0.00 0.00 85 1011.3
20260901082228 12 114 0.0 0.0 0.00 0.00 0.00 85 1011.3
20260901081723 12 114 0.0 0.0 0.00 0.00 0.00 85 1011.3
20260901081223 12 114 0.0 0.0 0.00 0.00 0.00 85 1011.3
20260901080718 12 114 0.0 0.0 0.00 0.00 0.00 84 1011.3
20260901080217 12 112 0.0 0.0 0.00 0.00 0.00 83 1011.0
20260901075712 12 112 0.0 0.0 0.00 0.00 0.00 83 1011.3
20260901075211 13 118 0.0 0.0 0.00 0.00 0.00 83 1011.3
20260901074706 13 118 0.0 0.0 0.00 0.00 0.00 82 1011.0
20260901074201 13 118 0.0 0.0 0.00 0.00 0.00 82 1011.3
20260901073658 13 117 0.0 0.0 0.00 0.00 0.00 81 1011.3
20260901073153 13 133 0.0 1.6 0.00 0.00 0.00 81 1011.3
20260901072648 13 55 0.0 1.6 0.00 0.00 0.00 80 1011.0
20260901072143 13 99 0.0 1.6 0.00 0.00 0.00 80 1011.0
20260901071642 13 98 0.0 1.6 0.00 0.00 0.00 80 1011.3
20260901071137 13 139 0.0 1.6 0.00 0.00 0.00 80 1011.3
20260901070631 13 103 0.0 1.6 0.00 0.00 0.00 80 1011.3
20260901070127 13 64 1.6 3.2 0.00 0.00 0.00 79 1011.3
20260901065620 13 93 1.6 4.8 0.00 0.00 0.00 79 1011.3
20260901065115 13 313 1.6 3.2 0.00 0.00 0.00 79 1011.3
20260901064612 14 109 0.0 1.6 0.00 0.00 0.00 79 1011.3
20260901064108 14 104 0.0 0.0 0.00 0.00 0.00 79 1011.3
20260901063605 14 106 0.0 3.2 0.00 0.00 0.00 80 1011.3
20260901063101 14 103 0.0 3.2 0.00 0.00 0.00 80 1011.3
20260901062556 14 106 0.0 1.6 0.00 0.00 0.00 80 1011.3
20260901062052 14 30 1.6 1.6 0.00 0.00 0.00 80 1011.3
20260901061548 14 258 0.0 9.7 0.00 0.00 0.00 80 1011.3
20260901061043 14 66 1.6 1.6 0.00 0.00 0.00 80 1011.8
20260901060537 14 325 0.0 9.7 0.00 0.00 0.00 79 1011.3
20260901060032 13 78 1.6 3.2 0.00 0.00 0.00 80 1011.8
20260901055527 13 276 0.0 3.2 0.00 0.00 0.00 80 1011.8
20260901055024 13 51 3.2 4.8 0.00 0.00 0.00 81 1011.8
20260901054521 13 109 0.0 1.6 0.00 0.00 0.00 80 1011.8
20260901054017 13 106 0.0 3.2 0.00 0.00 0.00 80 1011.8
20260901053513 13 338 1.6 3.2 0.00 0.00 0.00 80 1011.8
20260901053009 13 339 0.0 3.2 0.00 0.00 0.00 80 1011.8
20260901052504 14 339 1.6 6.4 0.00 0.00 0.00 80 1012.1
20260901052004 14 91 0.0 6.4 0.00 0.00 0.00 79 1011.8
20260901051458 14 105 1.6 4.8 0.00 0.00 0.00 79 1011.8
20260901050957 14 80 1.6 1.6 0.00 0.00 0.00 78 1011.8
20260901050452 14 206 1.6 1.6 0.00 0.00 0.00 78 1011.8
20260901045952 14 329 1.6 4.8 0.00 0.00 0.00 78 1011.8
20260901045448 14 20 1.6 3.2 0.00 0.00 0.00 78 1011.8
20260901044942 14 289 3.2 4.8 0.00 0.00 0.00 78 1011.8
20260901044438 14 50 1.6 3.2 0.00 0.00 0.00 78 1011.8
20260901043934 14 105 1.6 3.2 0.00 0.00 0.00 78 1011.8
20260901043430 14 95 0.0 1.6 0.00 0.00 0.00 78 1012.1
20260901042930 15 103 1.6 1.6 0.00 0.00 0.00 78 1012.1
20260901042430 15 18 3.2 4.8 0.00 0.00 0.00 77 1011.8
20260901041925 15 79 1.6 4.8 0.00 0.00 0.00 77 1011.8
20260901041420 15 98 0.0 3.2 0.00 0.00 0.00 77 1011.8
20260901040919 15 112 0.0 3.2 0.00 0.00 0.00 77 1011.8
20260901040414 15 125 0.0 1.6 0.00 0.00 0.00 76 1011.8
20260901035908 15 105 0.0 4.8 0.00 0.00 0.00 76 1011.8
20260901035406 15 89 0.0 4.8 0.00 0.00 0.00 75 1011.8
20260901034905 15 41 1.6 1.6 0.00 0.00 0.00 75 1011.8
20260901034400 15 83 0.0 3.2 0.00 0.00 0.00 74 1011.8
20260901033855 16 338 1.6 3.2 0.00 0.00 0.00 73 1011.8
20260901033354 16 22 3.2 4.8 0.00 0.00 0.00 73 1011.8
20260901032853 16 58 1.6 4.8 0.00 0.00 0.00 72 1011.8
20260901032352 16 343 1.6 4.8 0.00 0.00 0.00 71 1011.3
20260901031848 16 342 3.2 9.7 0.00 0.00 0.00 71 1011.8
20260901031343 16 86 1.6 4.8 0.00 0.00 0.00 71 1011.3
20260901030843 16 111 1.6 3.2 0.00 0.00 0.00 70 1011.8
20260901030338 17 87 1.6 1.6 0.00 0.00 0.00 69 1011.3
20260901025837 17 85 1.6 4.8 0.00 0.00 0.00 69 1011.8
20260901025332 17 96 1.6 4.8 0.00 0.00 0.00 68 1011.8
20260901024827 17 114 1.6 6.4 0.00 0.00 0.00 68 1011.8
20260901024326 17 86 1.6 3.2 0.00 0.00 0.00 67 1011.8
20260901023824 18 94 1.6 1.6 0.00 0.00 0.00 66 1011.3
20260901023320 18 103 0.0 1.6 0.00 0.00 0.00 65 1011.8
20260901022815 18 96 0.0 1.6 0.00 0.00 0.00 65 1011.8
20260901022311 18 103 1.6 1.6 0.00 0.00 0.00 64 1011.8
20260901021806 18 59 1.6 3.2 0.00 0.00 0.00 64 1011.8
20260901021302 18 104 0.0 3.2 0.00 0.00 0.00 64 1011.8
20260901020756 18 66 1.6 3.2 0.00 0.00 0.00 64 1011.8
20260901020251 18 89 1.6 4.8 0.00 0.00 0.00 64 1011.8
20260901015746 18 90 0.0 3.2 0.00 0.00 0.00 65 1011.8
20260901015242 18 148 0.0 9.7 0.00 0.00 0.00 65 1011.8
20260901014736 18 100 0.0 6.4 0.00 0.00 0.00 66 1011.8
20260901014232 18 291 3.2 4.8 0.00 0.00 0.00 65 1011.8
20260901013728 18 98 1.6 6.4 0.00 0.00 0.00 65 1011.8
20260901013223 18 226 1.6 4.8 0.00 0.00 0.00 65 1011.8
20260901012718 18 146 0.0 3.2 0.00 0.00 0.00 65 1011.8
20260901012218 20 303 3.2 4.8 0.00 0.00 0.00 62 1012.1
20260901011714 20 225 3.2 3.2 0.00 0.00 0.00 62 1011.8
20260901011214 19 73 3.2 4.8 0.00 0.00 0.00 63 1012.1
20260901010708 20 345 4.8 9.7 0.00 0.00 0.00 62 1011.8
20260901010202 20 38 1.6 3.2 0.00 0.00 0.00 61 1012.1
20260901005656 20 111 1.6 1.6 0.00 0.00 0.00 60 1012.1
20260901005152 21 90 1.6 4.8 0.00 0.00 0.00 59 1012.1
20260901004652 22 359 3.2 3.2 0.00 0.00 0.00 56 1012.1
20260901004146 22 112 0.0 4.8 0.00 0.00 0.00 56 1012.5
20260901003640 21 112 1.6 3.2 0.00 0.00 0.00 58 1012.1
20260901003139 21 106 1.6 4.8 0.00 0.00 0.00 59 1012.1
20260901002634 22 314 4.8 4.8 0.00 0.00 0.00 56 1012.5
20260901002128 21 111 1.6 4.8 0.00 0.00 0.00 58 1012.5
20260901001624 21 130 0.0 1.6 0.00 0.00 0.00 59 1012.5
20260901001119 20 320 3.2 3.2 0.00 0.00 0.00 60 1012.5
20260901000614 20 236 3.2 6.4 0.00 0.00 0.00 61 1012.5
20260901000109 21 333 4.8 11.3 0.00 0.00 0.00 59 1012.5
20260831235602 21 306 3.2 6.4 0.00 0.00 0.00 60 1012.5
20260831235058 20 354 3.2 4.8 0.00 0.00 0.00 61 1012.5